Salamanca/Mataca, Spain

10:53 AM CET on February 24, 2017 (GMT +0100)
Matacan

Weather History for LESA - August, 2013

Change the Weather History Date:

Sunday, August 25, 2013

  Actual Average Record
Temperature  
Mean Temperature 66 °F -  
Max Temperature 82 °F - - ()
Min Temperature 51 °F - - ()
Cooling Degree Days 2    
Growing Degree Days 16 (Base 50)    
Moisture  
Dew Point 47 °F    
Average Humidity 55    
Maximum Humidity 88    
Minimum Humidity 19    
Precipitation  
Precipitation 0.00 in 0.04 in - ()
Sea Level Pressure  
Sea Level Pressure 30.04 in    
Wind  
Wind Speed 8 mph ()    
Max Wind Speed 14 mph    
Max Gust Speed -    
Visibility 11.0 miles    
Events      
T = Trace of Precipitation, MM = Missing Value Source: Averaged Metar Reports

Daily Weather History Graph

Daily Weather History Graph

Search for Another Location

Airport or City:

Trip Planner

Search our weather history database for the weather conditions in past years. The results will help you decide how hot, cold, wet, or windy it might be!

Date:

Astronomy

Aug. 25, 2013 Rise Set
Actual Time 7:41 AM CEST 9:05 PM CEST
Civil Twilight 7:13 AM CEST 9:34 PM CEST
Nautical Twilight 6:38 AM CEST 10:08 PM CEST
Astronomical Twilight 6:02 AM CEST 10:44 PM CEST
Moon 11:25 PM CEST (8/25) 12:32 PM CEST (8/25)
Length of Visible Light 14h 20m
Length of Day
13h 23m
Waning Gibbous, 78% of the Moon is Illuminated
Aug 25
Waning Gibbous
Aug 28
Last Quarter
Sep 5
New
Sep 12
First Quarter
Sep 19
Full

Hourly Weather History & Observations

Time (CEST) Temp. Dew Point Humidity Pressure Visibility Wind Dir Wind Speed Gust Speed Precip Events Conditions
12:00 AM 64.4 °F 50.0 °F 59% 30.09 in - East 10.4 mph - N/A   Clear
12:30 AM 62.6 °F 50.0 °F 63% 30.09 in - ENE 11.5 mph - N/A   Clear
1:00 AM 60.8 °F 50.0 °F 68% 30.12 in - ENE 12.7 mph - N/A   Clear
1:30 AM 60.8 °F 50.0 °F 68% 30.12 in - ENE 13.8 mph - N/A   Clear
2:00 AM 59 °F 49 °F 60%  in 9 mi ENE 12.7 mph - -  
2:00 AM 59.0 °F 48.2 °F 67% 30.12 in - ENE 12.7 mph - N/A   Clear
2:30 AM 57.2 °F 48.2 °F 72% 30.12 in - ENE 11.5 mph - N/A   Clear
3:00 AM 57.2 °F 50.0 °F 77% 30.12 in - ENE 8.1 mph - N/A   Clear
3:30 AM 55.4 °F 48.2 °F 77% 30.12 in - East 6.9 mph - N/A   Clear
4:00 AM 53.6 °F 48.2 °F 82% 30.09 in - East 5.8 mph - N/A   Clear
4:30 AM 53.6 °F 48.2 °F 82% 30.09 in - Variable 2.3 mph - N/A   Clear
5:00 AM 51.8 °F 48.2 °F 88% 30.09 in - NE 5.8 mph - N/A   Clear
5:30 AM 51.8 °F 48.2 °F 88% 30.09 in - ENE 5.8 mph - N/A   Clear
6:00 AM 51.8 °F 48.2 °F 88% 30.09 in - NE 4.6 mph - N/A   Clear
6:30 AM 51.8 °F 46.4 °F 82% 30.09 in - NE 6.9 mph - N/A   Clear
7:00 AM 51.8 °F 46.4 °F 82% 30.09 in - NE 8.1 mph - N/A   Clear
7:30 AM 51.8 °F 46.4 °F 82% 30.09 in - NE 5.8 mph - N/A   Clear
8:00 AM 51.8 °F 46.4 °F 82% 30.09 in - NE 5.8 mph - N/A   Clear
8:30 AM 53.6 °F 46.4 °F 77% 30.09 in - ENE 6.9 mph - N/A   Clear
9:00 AM 53.6 °F 46.4 °F 77% 30.09 in - ENE 9.2 mph - N/A   Clear
9:30 AM 55.4 °F 46.4 °F 72% 30.09 in - ENE 9.2 mph - N/A   Clear
10:00 AM 59.0 °F 46.4 °F 63% 30.09 in - East 12.7 mph - N/A   Clear
10:30 AM 60.8 °F 46.4 °F 59% 30.09 in - East 11.5 mph - N/A   Clear
11:00 AM 60.8 °F 46.4 °F 59% 30.09 in - ENE 11.5 mph - N/A   Clear
11:30 AM 64.4 °F 46.4 °F 52% 30.09 in - East 10.4 mph - N/A   Clear
12:00 PM 66.2 °F 46.4 °F 49% 30.06 in - East 9.2 mph - N/A   Clear
12:30 PM 68.0 °F 44.6 °F 43% 30.06 in - East 11.5 mph - N/A   Clear
1:00 PM 69.8 °F 46.4 °F 43% 30.06 in - ENE 10.4 mph - N/A   Clear
1:30 PM 71.6 °F 44.6 °F 38% 30.06 in - East 9.2 mph - N/A   Clear
2:00 PM 75 °F 44 °F 22%  in 12 mi ENE 9.2 mph - -   Clear
2:00 PM 73.4 °F 42.8 °F 33% 30.04 in - East 9.2 mph - N/A   Clear
2:30 PM 75.2 °F 42.8 °F 31% 30.04 in - East 9.2 mph - N/A   Clear
3:00 PM 75.2 °F 42.8 °F 31% 30.04 in - East 8.1 mph - N/A   Clear
3:30 PM 77.0 °F 44.6 °F 32% 30.01 in - Variable 5.8 mph - N/A   Clear
4:00 PM 77.0 °F 42.8 °F 29% 30.01 in - Variable 5.8 mph - N/A   Clear
4:30 PM 78.8 °F 42.8 °F 28% 29.98 in - NNE 5.8 mph - N/A   Clear
5:00 PM 78.8 °F 44.6 °F 30% 29.98 in - East 8.1 mph - N/A   Clear
5:30 PM 78.8 °F 42.8 °F 28% 29.98 in - NNE 5.8 mph - N/A   Clear
6:00 PM 80.6 °F 44.6 °F 28% 29.95 in - NE 5.8 mph - N/A   Clear
6:30 PM 80.6 °F 42.8 °F 26% 29.95 in - NE 5.8 mph - N/A   Clear
7:00 PM 78.8 °F 44.6 °F 30% 29.95 in - NNE 6.9 mph - N/A   Clear
7:30 PM 78.8 °F 46.4 °F 32% 29.95 in - NE 3.5 mph - N/A   Clear
8:00 PM 79 °F 44 °F 19%  in 12 mi NNE 4.6 mph - -   Clear
8:00 PM 77.0 °F 44.6 °F 32% 29.92 in - NE 6.9 mph - N/A   Clear
8:30 PM 75.2 °F 44.6 °F 34% 29.92 in - NE 3.5 mph - N/A   Clear
9:00 PM 71.6 °F 50.0 °F 46% 29.92 in - NE 3.5 mph - N/A   Clear
9:30 PM 68.0 °F 50.0 °F 52% 29.92 in - NE 3.5 mph - N/A   Clear
10:00 PM 64.4 °F 50.0 °F 59% 29.92 in - NE 3.5 mph - N/A   Clear
10:30 PM 62.6 °F 50.0 °F 63% 29.92 in - Calm Calm - N/A   Clear
11:00 PM 62.6 °F 51.8 °F 68% 29.92 in - Calm Calm - N/A   Clear
11:30 PM 59.0 °F 51.8 °F 77% 29.92 in - Variable 1.2 mph - N/A   Clear